Location: *
(44.1392°N, 4.8079°E)
Time: 07:32:38
(UTC+00:00)

CZ-4C R/B - Pass Details

Date: 21 June 2021
Orbit: 606 x 1396 km, 63.4° (Epoch: 31 July)

Event Time Altitude Azimuth Distance (km) Brightness Sun altitude
Exits shadow 01:43:47 15° 157° (SSE) 1,807 3.6 -16.9°
Maximum altitude 01:46:37 25° 111° (ESE) 1,448 3.5 -16.7°
Drops below altitude 10° 01:51:01 10° 57° (ENE) 2,421 5.6 -16.3°
Sets 01:54:04 0° 46° (NE) 3,502 7.0 -16.0°
